Regional Weather Roundup
Issued by NWS

Home | Current Version | Previous Version | Text Only | Print | Product List | Glossary Off
Versions: 1 2 3 4 5 6 7 8 9 10 11 12 13 14 15 16 17 18 19 20 21 22 23 24 25 26 27 28 29 30 31 32 33 34 35 36 37 38 39 40 41 42 43 44 45 46 47 48 49 50

000
ASUS44 KMEG 061210
RWRTN
TENNESSEE HOURLY STATE WEATHER ROUNDUP
NATIONAL WEATHER SERVICE MEMPHIS TN
600 AM CST TUE DEC 06 2016

TNZ002-004-019-021-049-052-054-088>092-061300-
WEST TENNESSEE

CITY           SKY/WX    TMP DP  RH WIND       PRES   REMARKS
MEMPHIS INTL   CLOUDY    44  43  96 NW12      29.70R
NWS MEMPHIS      N/A     44 N/A N/A MISG        N/A
JACKSON        RAIN      46  46 100 NW7       29.66R FOG
DYERSBURG      CLOUDY   N/A N/A N/A N7        29.68R
UNION CITY     CLOUDY    41  41 100 NW5       29.68R
PARIS          CLOUDY    43  43 100 N10       29.62R
LEXINGTON      CLOUDY    48  48 100 N5        29.58R
$$

TNZ008-025-027-028-033-062-065-066-061300-
NORTH MIDDLE TENNESSEE

CITY           SKY/WX    TMP DP  RH WIND       PRES   REMARKS
NASHVILLE      CLOUDY    57  54  89 SE16G23   29.57R
CLARKSVILLE    LGT RAIN  45  43  93 NW18      29.64R
SMYRNA         CLOUDY    56  55  97 SE7       29.59S
CROSSVILLE     RAIN      52  51  97 SE9       29.65F FOG
$$

TNZ061-075-076-078-094-096-097-061300-
SOUTH MIDDLE TENNESSEE

CITY           SKY/WX    TMP DP  RH WIND       PRES   REMARKS
TULLAHOMA      MOCLDY    52  52 100 SE12      29.65R
WINCHESTER     CLOUDY    52  52 100 CALM      29.67R
MCMINNVILLE    CLOUDY    54  54 100 CALM      29.65R
COLUMBIA       MOCLDY   N/A N/A N/A SE12      29.53F
SHELBYVILLE    MOCLDY    55  55 100 SE16      29.62F
$$

TNZ017-018-042-046-047-061300-
NORTHEAST TENNESSEE

CITY           SKY/WX    TMP DP  RH WIND       PRES   REMARKS
TRI CITIES     LGT RAIN  46  44  93 NE3       29.79S
$$

TNZ012-013-036-069-073-074-061300-
CENTRAL EAST TENNESSEE

CITY           SKY/WX    TMP DP  RH WIND       PRES   REMARKS
KNOXVILLE      LGT RAIN  50  48  93 N8        29.69S FOG
OAK RIDGE      RAIN      51  49  92 CALM      29.73F FOG
GATLINBURG     MOCLDY    46  46 100 CALM      29.68F
$$

TNZ083-085-099-061300-
SOUTHEAST TENNESSEE

CITY           SKY/WX    TMP DP  RH WIND       PRES   REMARKS
CHATTANOOGA    DRIZZLE   51  49  92 N6        29.68R FOG
$$

SKY/WX REPORTED AS FAIR MEANS FEW OR NO CLOUDS BELOW
12 THOUSAND FEET.





USA.gov is the U.S. government's official web portal to all federal, state and local government web resources and services.